Theta_e
324 325 325 325 325 325 325 325 325 325 326 327 327 328 328 328 328 328 327 327 328 328 328 328 329 329 330 330 330 329 326 314 309 306 305 306 323 329 328 332 332 334 332 317 310 306 304 306 307 305 306 306 306 306 310 309 306 302 296 292 289 291 290 292 293 294 294 292 294 295 296 294 294 295 298 299 297 296 296 295 295 296 295 296 295 296 297 297
324 324 324 324 324 325 325 325 325 326 326 327 327 328 328 328 327 327 327 327 327 327 328 328 329 329 329 329 328 328 320 318 308 307 305 318 327 330 331 332 333 333 326 309 307 305 302 303 303 304 303 301 310 304 309 306 306 298 294 291 289 290 292 296 295 294 293 294 295 296 294 294 295 295 297 294 293 294 293 293 293 292 293 295 295 295 295 296
323 324 324 323 324 324 324 324 325 326 327 327 327 328 327 326 326 326 326 326 326 327 328 328 329 329 328 328 325 327 322 320 312 304 308 330 332 331 331 334 334 333 317 311 312 307 303 302 303 303 302 300 303 304 306 304 302 300 293 290 289 294 295 296 296 295 296 296 295 295 296 294 295 296 298 294 291 292 290 289 290 290 290 292 293 294 293 294
323 323 323 323 323 324 324 323 324 326 326 327 327 327 327 325 326 326 326 326 326 327 327 328 328 328 327 325 328 318 320 311 303 306 310 329 334 333 336 335 331 327 318 314 311 306 305 304 303 304 303 302 301 304 300 303 299 300 292 291 292 294 294 296 296 295 296 296 296 295 294 293 295 296 296 293 291 290 290 291 291 290 290 291 292 293 292 292
322 323 323 323 322 323 322 323 324 326 326 326 327 327 326 325 326 326 325 326 326 327 328 328 328 328 325 324 326 321 315 300 302 312 315 329 330 333 334 332 331 322 318 311 311 309 306 303 302 305 304 296 299 299 297 301 302 297 293 295 295 294 294 296 296 296 296 294 294 293 293 295 297 296 294 293 290 287 289 291 292 292 292 291 291 291 292 291
322 322 322 322 322 322 322 323 325 326 326 327 327 327 326 325 325 325 325 325 326 327 327 328 328 327 325 322 317 322 314 294 307 309 327 327 328 330 329 329 329 321 319 311 307 305 305 304 301 298 295 295 294 295 298 299 301 292 291 296 297 295 295 297 297 296 295 295 293 293 296 295 294 293 293 292 290 291 293 292 292 292 292 292 292 291 290 290
321 321 321 321 321 321 321 322 324 324 325 326 326 326 328 326 325 324 324 325 326 327 328 327 327 326 323 324 319 318 303 304 308 311 325 326 327 325 326 325 320 311 308 306 306 304 302 302 301 299 297 294 295 296 300 301 302 295 291 294 297 297 296 296 296 294 293 294 296 296 296 294 294 291 293 291 291 292 293 293 292 292 292 292 291 291 290 290
321 321 320 320 320 320 320 322 322 323 324 325 326 326 327 326 325 324 324 325 326 327 327 327 326 324 327 323 322 308 305 305 307 311 321 324 316 314 318 313 310 311 307 304 303 302 303 300 300 299 295 294 297 296 298 295 297 295 294 296 296 296 296 297 295 295 295 296 294 292 293 293 294 293 291 290 291 292 292 292 291 291 290 290 289 289 290 289
321 320 320 319 319 319 320 321 322 322 323 324 326 326 327 326 324 324 324 325 326 326 327 326 325 323 322 317 313 306 303 311 309 312 312 310 310 307 311 309 310 309 307 306 304 305 303 300 302 301 294 296 298 297 295 294 289 296 296 296 296 296 297 296 296 296 295 296 293 291 292 293 294 294 290 290 291 292 292 291 290 290 289 288 288 289 288 288
321 320 320 319 319 319 320 320 321 322 323 324 324 326 326 325 324 324 324 325 325 326 327 326 324 322 320 315 307 301 306 312 314 312 311 310 308 308 309 309 309 308 305 306 306 304 302 303 304 305 304 299 300 297 296 296 291 298 296 297 295 295 295 296 296 296 295 294 293 292 290 292 294 293 286 291 291 292 291 289 289 289 288 288 289 289 288 288
321 320 320 319 319 319 319 319 320 322 322 323 324 324 325 323 324 324 324 325 325 326 327 326 323 321 317 315 304 298 312 313 310 310 311 312 308 306 307 309 308 308 305 307 307 307 306 306 305 306 304 297 296 294 295 296 298 297 295 293 294 294 294 294 295 295 296 295 293 293 291 294 294 293 289 291 292 292 290 289 288 288 287 287 288 288 289 288
320 320 320 320 319 319 319 319 320 320 322 323 324 324 322 323 323 323 324 324 325 327 327 325 324 314 311 303 301 304 311 310 309 309 311 312 309 309 310 309 308 309 305 304 308 308 307 305 306 302 295 301 293 295 295 296 297 296 294 290 291 293 293 294 293 294 294 293 294 293 290 290 291 288 291 292 292 290 289 288 287 287 287 287 287 287 287 287
320 320 319 319 319 319 318 319 320 320 321 322 323 323 322 323 323 323 324 324 324 326 326 326 321 322 314 301 304 313 311 308 308 310 311 309 309 310 307 310 309 307 308 306 306 308 307 303 303 299 302 298 294 292 296 297 295 296 293 290 290 289 288 292 295 295 293 294 293 293 284 283 288 290 291 292 290 289 288 287 287 286 286 286 286 286 287 287
320 319 319 319 318 318 318 318 319 320 320 322 323 324 323 322 322 323 324 324 325 326 326 327 317 320 304 299 309 315 311 308 310 313 311 310 309 312 312 313 310 307 310 307 305 304 307 303 303 301 302 297 294 300 296 295 294 290 292 291 285 286 284 291 294 293 292 295 294 293 284 284 288 290 291 291 291 289 287 286 286 286 286 286 286 286 286 287
319 319 319 318 318 318 317 317 318 319 321 322 323 323 322 321 323 324 326 324 325 326 324 324 316 309 298 302 315 316 325 308 310 310 312 306 306 310 311 308 308 307 305 306 307 304 303 305 301 297 295 298 298 295 290 290 290 290 288 283 286 285 284 290 294 292 292 294 293 291 284 283 288 289 290 290 289 288 286 286 286 285 285 285 285 285 285 287
320 319 318 318 318 318 317 316 317 319 320 320 322 321 321 321 322 325 325 323 325 326 318 321 313 304 301 298 308 324 312 309 309 311 309 310 307 304 306 304 306 307 305 304 306 303 302 304 298 296 296 295 292 288 287 286 286 288 287 283 284 285 285 288 292 292 291 292 293 291 284 286 287 290 290 289 288 287 286 285 285 285 285 285 285 285 285 285
319 319 318 318 318 318 317 316 317 319 320 320 320 321 321 322 324 325 323 325 320 321 320 310 309 304 300 308 310 307 306 309 314 312 310 310 307 306 304 304 304 303 305 304 303 303 303 299 298 295 294 290 289 289 283 280 280 283 286 284 286 285 284 282 287 290 292 292 289 289 286 285 286 291 290 289 288 286 285 285 285 285 285 285 284 284 284 285
319 319 319 318 318 317 316 316 318 319 319 319 320 321 320 325 323 326 318 319 313 318 317 315 308 303 298 306 302 302 308 307 311 309 307 308 307 306 303 301 299 298 300 300 302 300 300 294 295 291 292 290 286 283 283 280 283 283 284 283 283 283 284 284 284 286 292 291 289 287 286 286 287 289 289 288 287 286 285 285 284 284 284 284 284 284 284 284
319 319 319 319 318 316 316 316 318 319 319 320 322 324 325 322 316 310 302 303 302 298 298 300 297 291 291 302 304 308 309 311 311 307 308 306 307 305 304 304 301 299 298 295 297 298 298 292 292 288 288 284 286 284 283 285 287 285 285 283 283 281 283 283 286 290 291 288 287 286 285 287 286 287 288 287 287 285 284 284 284 284 284 284 284 284 283 284
319 319 319 319 318 316 315 316 318 319 321 316 313 311 300 298 298 302 302 300 299 298 299 299 302 302 304 303 308 310 313 308 302 306 307 309 305 301 300 302 301 299 296 295 294 294 295 288 287 285 286 285 287 288 288 288 288 287 286 285 284 283 284 287 288 289 289 288 286 287 285 285 285 287 288 287 285 284 284 284 283 283 284 284 283 283 283 283
318 318 318 318 318 316 315 316 317 318 319 313 307 297 292 294 291 289 294 297 298 302 301 302 304 302 302 305 306 302 301 303 302 303 305 306 301 300 297 297 293 293 293 296 296 296 294 288 286 289 287 286 287 287 289 289 288 287 285 283 283 284 284 287 288 290 289 287 282 284 285 286 287 287 287 286 284 283 284 283 283 283 284 284 283 282 282 283
318 318 318 318 317 316 315 316 318 318 319 308 306 301 299 298 301 300 297 292 298 304 303 303 303 302 304 304 305 303 302 299 301 301 305 305 300 298 295 294 294 293 293 292 290 286 286 286 288 290 288 288 288 289 288 287 288 286 284 283 282 284 285 288 289 289 288 288 283 283 284 285 287 288 287 285 285 284 285 284 284 283 283 283 282 282 282 282
317 317 318 317 316 315 315 316 317 318 306 305 302 303 303 305 305 305 303 297 296 302 303 302 302 299 302 303 304 304 299 297 295 301 300 304 296 297 294 291 291 292 292 289 289 285 286 285 290 289 288 288 287 288 288 288 288 284 283 282 282 283 284 280 285 286 288 286 283 284 285 286 287 285 285 286 285 283 284 284 284 284 283 282 283 282 281 281
316 316 316 316 315 315 315 316 317 309 304 303 303 302 305 304 304 305 303 295 294 297 303 303 303 303 300 301 304 300 296 297 296 297 302 299 295 295 293 293 292 291 290 289 288 287 288 291 290 288 289 288 287 289 287 285 283 284 285 283 283 284 284 283 283 285 287 287 287 285 283 281 285 282 282 283 284 284 284 284 283 283 283 283 283 282 282 281
316 316 316 315 314 315 315 317 304 304 305 304 301 305 304 303 304 304 299 294 293 296 307 305 306 306 304 308 306 301 297 297 297 298 300 298 295 294 293 295 291 287 290 289 288 287 287 289 291 288 290 289 289 288 287 286 283 282 285 287 286 286 284 283 284 284 280 279 283 283 276 275 280 283 283 281 282 282 283 282 282 282 283 282 281 281 282 283
317 316 316 315 315 314 317 311 305 304 306 302 304 304 300 302 302 302 297 287 284 292 301 297 308 301 308 299 304 300 297 295 297 299 301 300 301 296 295 293 294 290 288 288 287 286 287 290 291 289 289 289 289 286 287 288 283 282 284 287 285 284 284 283 282 281 275 274 281 284 276 274 279 280 281 281 281 281 282 282 282 282 282 281 281 281 281 281
317 316 316 314 314 314 310 305 306 308 303 304 302 303 302 303 304 301 296 287 283 293 296 303 302 302 307 302 300 299 290 291 297 296 299 301 298 300 294 290 292 291 290 288 287 285 287 288 287 288 288 286 284 284 286 288 283 282 284 285 284 283 282 282 282 281 280 282 283 283 281 276 276 280 282 281 280 280 280 281 281 281 280 280 280 280 280 280
317 316 315 314 313 313 303 306 306 305 301 305 305 300 302 303 302 302 293 276 276 300 296 297 303 309 305 301 301 294 295 296 294 295 296 299 297 294 294 291 292 290 290 288 283 287 288 286 286 286 286 284 284 284 286 287 285 282 285 284 283 282 282 282 281 279 279 278 275 278 281 276 275 278 283 281 279 278 279 280 280 281 280 280 279 280 280 280
317 316 314 313 313 314 307 305 305 303 304 303 301 302 305 302 302 295 282 277 291 297 306 297 307 304 301 300 297 297 296 296 293 295 297 295 299 294 290 290 289 288 289 289 286 285 288 289 287 287 285 284 285 286 286 287 285 285 284 285 284 283 283 282 279 278 278 276 274 278 280 273 276 278 278 280 280 279 279 279 280 280 279 279 280 279 280 280
316 315 314 312 309 307 304 306 305 306 303 302 304 302 303 301 301 292 281 275 297 290 297 299 298 296 297 294 294 295 294 294 294 293 294 292 294 296 292 293 290 290 286 287 286 287 289 291 292 288 285 286 284 284 286 287 288 288 286 284 282 282 283 281 279 278 275 271 277 279 279 278 272 276 278 277 280 282 280 279 279 279 279 279 279 279 280 280
316 314 312 311 303 305 302 299 303 302 301 302 303 302 301 298 288 280 274 281 293 294 297 295 293 298 294 292 289 293 293 293 294 292 291 293 291 290 291 290 289 283 281 280 283 283 287 289 288 286 290 289 285 287 287 287 286 285 282 280 280 280 277 278 273 276 270 272 275 276 279 279 271 274 279 282 278 282 281 279 279 278 278 279 279 279 279 279
314 312 312 308 306 304 302 304 303 302 301 300 302 299 295 286 287 281 279 294 286 289 290 290 293 292 293 294 291 290 288 295 292 291 289 284 285 288 284 286 282 283 281 278 282 281 283 284 285 288 290 289 285 284 281 283 285 282 279 279 276 271 272 267 271 270 269 272 274 275 276 275 275 279 278 283 279 281 282 281 279 278 278 278 278 279 279 279
313 311 310 309 309 304 305 304 304 302 301 300 300 296 288 282 275 282 282 288 284 292 291 295 292 293 292 291 289 291 292 290 293 291 291 288 287 283 284 287 285 288 283 281 281 281 282 282 285 286 287 289 286 282 279 281 282 281 281 277 274 270 267 271 271 271 270 273 276 275 277 273 276 277 280 280 278 280 280 280 279 278 278 278 279 278 278 279
313 311 306 310 309 308 306 305 304 303 301 300 298 290 285 280 278 290 287 286 288 294 294 293 293 291 292 289 288 290 289 289 291 290 290 284 285 283 285 288 289 288 287 281 282 277 275 276 282 284 283 287 287 284 282 280 280 282 281 280 277 275 272 274 272 270 274 273 273 277 272 269 269 274 277 279 279 279 279 279 278 279 278 278 278 278 278 277
312 310 307 309 308 308 306 305 304 303 301 298 289 285 280 280 282 282 283 285 289 291 292 293 292 289 289 288 288 291 291 287 289 286 287 285 283 280 283 285 289 288 282 283 281 278 280 281 283 285 284 287 286 287 285 282 281 280 282 281 277 277 280 277 272 269 269 272 271 270 273 273 274 277 278 278 278 278 278 278 278 278 278 278 277 278 277 277
309 307 308 308 308 305 306 306 304 303 301 291 283 280 282 284 281 284 286 293 294 291 290 290 288 287 283 283 284 289 291 289 288 287 282 283 283 282 282 284 286 289 285 283 280 279 281 278 282 284 283 282 282 283 286 286 277 280 281 277 280 283 281 277 277 276 273 272 273 272 274 277 276 278 277 277 277 277 277 277 277 277 277 277 277 277 277 277
307 310 305 307 306 304 306 306 306 302 299 287 282 282 284 284 288 289 295 293 292 292 288 285 284 286 282 283 284 286 288 288 284 284 282 282 283 285 285 287 288 287 289 289 284 284 282 283 282 281 282 283 281 282 283 283 285 280 277 279 283 285 283 279 273 272 272 268 272 271 273 275 273 270 276 275 275 275 275 276 277 277 276 276 277 277 277 277
306 307 308 307 307 306 307 307 306 301 296 287 283 290 286 287 292 294 295 292 293 293 287 284 284 288 282 284 283 285 287 287 283 285 279 282 284 287 285 286 289 289 289 286 286 283 282 280 280 279 281 282 283 284 282 283 285 281 281 286 280 275 275 277 272 270 269 270 271 275 273 276 275 275 273 274 274 275 275 275 275 275 275 276 276 276 277 276
307 305 301 307 307 307 306 307 305 300 293 285 283 288 290 290 293 293 295 295 295 290 287 286 287 286 286 283 283 284 284 283 282 282 282 282 282 287 289 288 287 284 286 287 285 282 284 281 280 279 279 281 280 280 276 278 283 282 283 280 284 279 279 274 276 274 276 272 272 273 274 274 276 278 276 276 277 276 275 274 275 276 276 276 276 276 276 276
302 301 300 304 305 306 307 307 304 298 290 286 287 288 290 290 294 295 293 296 292 290 287 285 287 285 286 287 285 285 284 284 281 282 284 285 285 289 288 291 287 285 283 286 285 283 281 281 277 278 278 280 277 279 278 279 276 276 277 275 278 280 280 279 276 273 274 272 271 272 270 274 277 279 278 278 278 277 276 276 276 276 276 276 276 276 276 277
305 300 299 304 306 308 307 304 297 291 289 291 291 289 292 292 293 294 296 296 295 296 292 287 287 285 286 285 287 286 285 283 283 282 283 283 285 283 287 290 287 285 283 283 284 282 279 279 279 276 275 276 279 281 282 281 282 279 278 277 279 277 275 272 272 276 274 274 271 270 270 277 277 279 279 279 279 277 277 277 276 276 276 276 277 276 276 276
302 292 297 306 308 308 303 295 295 296 291 291 291 293 291 300 295 294 293 295 295 293 295 291 288 289 286 287 286 286 287 283 284 284 284 286 286 288 286 290 287 286 286 281 281 281 282 278 277 277 279 280 281 281 281 282 281 280 279 279 281 280 279 275 271 274 273 274 276 275 272 275 280 280 279 279 278 278 277 277 276 276 276 276 276 276 276 277
299 296 301 305 308 305 301 294 297 294 293 295 297 297 296 294 293 294 295 293 292 294 291 290 290 288 289 289 288 286 288 286 285 284 284 286 287 288 285 287 286 285 283 280 281 281 289 278 275 280 280 279 278 278 279 280 281 279 279 279 279 278 279 278 278 278 274 274 271 272 270 274 278 280 280 279 278 277 277 277 277 276 276 276 276 276 276 277
301 299 298 305 307 304 298 289 289 292 294 295 295 295 297 296 295 292 293 293 293 290 291 289 290 292 290 289 288 287 288 284 287 288 286 285 286 283 282 286 287 284 287 283 285 286 279 280 278 273 273 279 278 276 277 278 279 276 276 279 279 281 280 280 279 276 272 275 275 272 268 274 280 279 278 278 278 277 276 276 277 276 276 276 276 276 276 276
301 303 300 300 304 301 293 296 292 291 292 292 292 291 293 293 296 297 295 293 293 289 289 289 293 289 289 289 288 288 289 290 286 286 287 285 286 282 281 283 283 284 283 284 288 287 284 280 279 274 274 273 274 276 278 273 275 277 278 278 280 279 278 275 273 275 271 275 276 272 272 278 278 280 278 278 278 277 276 277 276 277 276 276 276 276 276 276
297 289 297 295 298 297 296 297 294 291 287 290 290 292 293 291 294 297 297 295 295 291 293 291 290 291 288 287 287 287 287 289 288 284 285 285 281 280 280 280 282 282 286 291 287 286 279 279 281 282 280 279 282 284 280 280 276 274 276 277 277 279 279 279 278 274 272 275 274 275 276 276 278 277 277 278 277 277 276 276 276 276 276 276 276 276 276 277
297 290 291 286 296 293 292 296 293 292 289 293 287 289 289 292 293 293 297 292 294 294 291 292 290 287 286 287 287 287 289 288 287 287 284 282 280 277 281 280 282 284 288 286 286 281 277 277 280 281 283 285 286 286 283 282 280 281 280 278 277 278 278 277 275 273 278 273 271 277 278 276 277 279 279 279 279 278 276 276 275 276 276 276 276 277 280 275
292 295 296 297 292 286 288 289 294 293 294 293 290 291 288 289 290 289 292 296 294 294 292 289 291 293 290 289 288 286 288 286 286 285 288 286 278 279 280 282 279 284 284 281 283 282 279 279 282 281 281 283 284 284 284 283 281 281 280 280 277 277 277 275 276 278 278 274 273 278 279 276 277 278 280 281 281 280 276 276 276 276 276 275 275 275 275 275
298 293 295 300 290 291 292 293 294 293 292 293 291 292 289 289 288 291 291 288 293 291 294 289 290 291 290 291 290 288 288 282 282 286 287 285 285 279 276 277 280 279 281 279 281 279 280 279 282 282 281 282 282 282 283 281 281 281 280 279 279 278 277 277 277 278 277 276 278 278 278 277 279 279 281 281 280 278 276 276 276 275 275 276 274 274 274 275
295 294 289 297 294 290 292 293 293 293 290 293 289 290 290 289 289 291 291 292 288 291 294 291 292 290 292 292 291 288 289 290 288 287 288 288 283 281 280 283 278 278 278 279 280 280 282 278 283 280 279 279 282 282 281 280 279 279 280 280 279 279 278 278 277 277 277 277 277 277 276 276 280 282 282 282 278 277 276 275 275 275 275 275 274 274 274 275
303 303 300 292 289 290 291 291 291 291 290 291 289 290 291 290 290 292 292 297 294 290 291 291 293 292 292 292 291 290 293 291 291 291 291 289 287 286 285 283 283 278 279 278 280 278 282 278 279 278 275 277 280 279 279 279 279 277 277 278 278 278 276 277 276 277 276 274 276 276 274 274 280 280 279 278 277 276 275 275 275 275 275 275 274 274 274 274
305 304 304 297 290 293 290 291 291 291 287 291 292 291 291 291 293 294 290 295 296 296 294 294 294 293 291 290 289 291 294 294 295 293 290 289 288 286 291 287 286 283 278 279 282 279 281 278 277 276 274 276 276 277 275 275 275 273 275 277 278 278 279 279 280 279 278 278 275 273 274 279 280 278 277 276 276 275 275 275 275 275 275 274 275 274 274 274
Wind_Speed
17 19 18 17 18 17 17 17 17 16 15 15 16 16 16 16 15 12 11 11 10 9 8 9 8 8 7 7 8 8 6 5 5 5 10 3 4 11 11 12 11 12 13 6 6 8 8 5 3 4 1 1 2 0 1 2 0 2 2 2 3 2 1 1 1 0 1 3 0 1 0 6 1 1 1 7 13 12 10 14 8 13 11 8 5 6 7 7
18 19 18 19 18 18 17 17 18 16 15 14 15 15 17 16 16 14 13 11 10 8 8 8 8 7 7 7 7 6 3 3 8 8 4 2 7 9 10 9 9 8 9 4 7 5 6 8 6 8 5 1 1 1 2 1 2 2 0 2 4 1 2 1 1 2 1 1 1 0 3 4 1 1 1 6 3 6 11 9 9 11 10 10 11 9 9 8
18 20 19 19 19 19 18 18 18 17 16 14 14 14 14 15 17 16 13 11 10 9 7 7 7 6 6 6 5 4 1 1 2 7 2 3 8 9 9 8 7 5 2 1 3 3 3 4 6 4 3 2 1 1 1 1 1 1 2 2 3 3 2 1 4 2 4 4 3 2 2 4 3 0 1 5 6 8 7 7 6 9 8 8 6 9 8 9
19 19 19 19 19 20 19 19 18 16 16 15 13 14 14 16 16 16 14 12 10 9 8 7 6 6 5 5 2 2 1 3 4 3 1 6 9 9 9 8 8 3 0 2 3 4 4 4 5 1 2 1 3 2 0 1 2 1 2 2 2 1 3 3 4 4 4 5 1 2 1 3 4 3 3 9 12 7 5 3 9 10 9 7 7 6 6 8
19 19 18 19 19 20 20 19 18 17 17 16 15 13 14 16 16 16 15 12 10 8 8 6 5 4 4 4 4 0 2 2 1 1 2 10 10 9 9 10 10 3 1 4 5 3 2 3 2 1 1 3 3 2 1 1 1 1 2 2 2 2 1 1 4 5 3 5 3 3 5 0 1 6 4 3 9 4 3 5 9 9 8 8 8 5 5 7
18 18 19 19 19 19 20 19 19 19 18 17 16 14 14 16 15 17 15 12 10 9 7 6 5 3 2 2 3 2 1 0 1 2 7 10 10 10 11 11 11 3 1 4 4 4 11 7 5 3 3 1 0 1 1 1 0 2 3 1 0 0 0 1 3 1 5 2 2 1 1 2 6 5 4 12 8 4 5 8 9 10 9 9 7 6 8 7
18 17 18 18 19 20 20 20 19 19 19 18 17 16 12 14 15 16 16 12 10 8 7 5 4 3 0 3 2 3 4 1 1 4 9 10 10 11 11 7 8 6 4 6 8 5 5 6 6 3 3 2 2 1 0 1 1 2 3 1 2 1 2 2 1 3 4 7 0 0 1 4 8 6 1 11 4 7 7 10 10 9 9 8 10 7 7 5
17 16 17 18 18 19 19 19 20 19 19 18 17 17 15 17 14 15 17 12 9 7 7 5 4 5 3 2 2 2 2 0 3 3 7 9 9 9 8 2 8 6 8 5 5 5 3 6 3 3 4 2 1 2 2 3 1 2 2 1 2 1 3 3 1 2 1 1 0 6 2 4 6 8 5 6 6 7 8 9 10 10 9 8 8 7 6 7
16 16 16 18 18 17 17 19 19 20 19 19 18 16 13 15 15 15 17 12 7 6 6 5 4 4 3 3 2 1 1 1 4 2 6 8 8 6 9 5 6 7 1 4 5 3 3 2 2 2 2 3 2 5 3 3 5 3 3 0 0 2 2 3 0 0 1 1 3 4 9 6 10 11 5 5 5 6 8 9 9 10 8 7 7 7 6 5
18 18 16 17 18 18 18 19 18 19 19 19 18 18 14 15 16 15 17 12 7 5 3 4 2 4 1 2 2 1 1 2 3 2 5 5 6 6 9 3 4 6 4 5 7 7 4 0 1 3 1 2 1 3 1 1 4 1 1 0 2 6 4 2 3 0 3 2 1 2 4 5 5 7 2 3 5 6 9 8 8 9 7 6 5 5 4 6
18 19 18 17 18 18 19 19 19 20 19 19 20 18 14 16 15 16 17 11 6 5 1 2 3 1 1 1 2 1 2 3 0 2 4 3 6 6 4 5 3 3 4 6 5 2 1 1 1 1 1 1 3 5 1 1 1 3 1 5 6 8 4 3 2 0 1 1 1 3 1 9 6 1 7 11 7 7 11 8 8 7 6 6 5 4 3 4
19 20 18 18 17 18 20 19 19 19 19 19 18 18 19 17 15 14 16 11 6 2 1 2 2 0 1 6 4 1 4 4 1 0 1 1 1 3 4 1 3 3 3 3 1 1 2 1 1 1 1 1 3 2 0 2 1 0 2 4 6 3 2 2 4 1 1 2 1 1 2 5 6 3 7 11 8 7 9 9 8 7 6 5 5 4 4 4
19 19 19 18 18 18 19 20 19 20 19 18 17 20 22 18 16 14 14 10 2 1 1 2 0 1 1 1 1 3 3 0 2 3 4 1 1 1 1 1 1 2 3 4 1 0 2 2 2 0 1 1 1 1 1 0 3 0 1 3 3 3 4 6 1 0 3 2 2 4 5 4 3 7 10 10 10 8 9 7 6 6 5 5 4 4 4 4
17 17 17 18 18 17 18 19 20 20 20 19 20 19 19 19 16 15 13 8 7 5 2 3 0 1 2 0 2 4 3 2 1 3 3 3 3 1 1 1 0 1 1 4 3 3 2 1 3 1 0 2 2 3 5 2 2 1 1 3 1 3 3 3 5 3 3 1 4 2 4 4 3 7 10 9 11 12 9 7 6 6 5 4 4 4 4 4
15 17 17 18 18 17 17 18 19 20 20 19 21 18 22 18 17 15 11 7 5 1 1 2 1 2 2 0 1 3 3 2 3 1 1 4 2 0 2 2 2 2 2 3 3 1 3 2 2 1 1 2 1 2 4 2 2 0 1 3 3 4 5 4 3 5 8 1 3 2 4 6 8 8 9 8 9 10 10 8 7 6 5 4 4 4 4 4
15 16 17 19 18 18 18 18 18 19 19 23 19 24 21 18 14 12 9 7 7 5 0 1 0 3 2 0 1 2 1 1 1 2 1 2 1 0 3 4 1 0 2 0 2 2 1 3 0 1 2 1 1 1 3 4 2 2 1 4 3 0 3 2 3 2 6 2 1 6 5 3 2 6 6 6 9 9 10 8 6 6 5 5 3 4 4 3
14 16 16 17 17 18 18 18 18 18 17 20 24 23 20 15 10 7 6 3 3 0 0 0 0 1 1 0 0 1 1 1 0 0 4 0 2 1 2 2 1 1 1 2 3 2 1 0 1 1 1 0 0 2 3 5 5 2 2 1 1 4 3 3 4 2 2 2 4 4 5 6 2 13 9 7 9 8 9 8 7 6 5 4 4 4 4 3
13 16 16 17 17 18 18 18 18 18 19 23 22 17 16 16 5 5 3 2 1 0 0 1 2 1 0 1 1 2 1 2 3 3 3 1 2 0 0 1 0 3 1 1 1 0 0 0 0 2 2 2 3 4 4 4 3 3 4 5 7 3 2 6 1 3 3 2 5 2 4 9 2 10 10 9 8 9 9 9 8 7 6 5 4 4 3 3
13 15 16 16 16 17 17 17 19 18 19 23 18 15 5 2 1 4 5 6 2 2 2 1 2 1 4 1 3 4 1 3 2 1 1 0 0 0 0 0 2 1 0 1 0 1 0 1 2 3 3 2 1 2 1 5 4 5 5 4 3 4 7 6 5 2 7 4 5 5 6 6 5 9 7 7 7 10 8 6 6 7 6 5 5 4 3 3
12 15 16 16 16 16 17 18 18 19 17 12 10 7 6 9 8 1 8 7 1 1 2 2 1 3 4 1 1 2 1 2 2 2 2 1 0 1 0 1 2 2 2 3 5 3 3 1 1 4 6 4 2 3 4 4 3 2 1 1 7 7 8 5 5 3 2 1 7 9 6 5 5 11 12 8 7 7 9 9 7 6 6 5 5 4 4 3
11 14 15 16 15 15 17 18 18 18 18 5 4 7 4 1 3 4 6 9 8 4 2 2 1 3 3 1 1 2 1 1 1 0 1 0 1 0 1 1 2 4 2 3 2 1 2 1 5 6 7 4 3 4 1 0 0 2 3 4 8 4 8 7 4 2 0 1 3 4 6 7 7 8 10 6 9 12 12 10 8 8 6 6 6 5 4 4
11 13 14 16 15 16 17 17 17 17 12 2 6 5 2 2 1 0 1 7 5 4 2 1 1 1 2 2 1 3 4 1 1 2 3 5 1 1 2 2 1 3 4 4 2 4 2 4 8 8 5 3 3 2 2 3 2 2 4 3 4 8 7 10 4 2 1 2 7 4 6 8 9 11 8 13 15 9 9 10 9 9 7 5 5 5 4 2
11 14 16 15 15 16 17 17 14 14 5 7 4 3 1 1 3 3 0 2 8 2 1 0 1 3 1 2 0 1 1 2 2 1 2 4 1 0 0 2 3 1 2 2 1 1 6 4 9 5 3 2 1 1 2 1 0 3 4 2 8 4 2 6 3 3 2 1 4 5 14 11 8 3 9 11 9 4 5 6 7 8 9 7 7 6 5 4
10 12 13 14 15 15 17 16 12 4 5 4 5 2 0 2 3 3 1 1 6 3 2 2 1 1 3 1 2 2 2 1 1 1 2 1 1 2 2 1 1 1 1 1 2 5 9 6 1 4 3 3 3 0 2 2 5 4 6 5 5 5 5 5 5 4 6 5 4 10 11 9 9 5 4 3 2 7 6 6 6 5 6 7 5 4 5 4
10 12 12 13 15 15 17 13 5 2 3 3 2 0 0 2 3 2 1 4 1 4 1 2 2 1 1 1 1 1 1 1 1 1 1 1 1 1 2 1 2 2 2 2 1 2 9 5 3 4 1 1 1 3 4 4 4 3 6 8 7 3 4 5 4 6 5 6 5 0 9 4 4 12 12 6 5 8 5 9 8 8 7 5 6 6 4 4
10 12 12 13 15 18 15 2 0 0 2 0 1 1 1 3 2 2 1 2 3 3 1 3 0 1 1 1 1 2 2 1 0 1 1 1 0 1 1 0 2 3 1 0 3 3 5 0 1 3 3 2 1 3 3 4 5 0 6 5 4 4 2 3 4 4 5 4 2 1 2 12 3 5 8 7 9 10 5 8 8 8 7 6 6 5 4 4
9 12 12 13 14 16 2 1 1 1 1 1 1 0 0 2 1 1 1 2 2 3 3 0 1 1 0 0 1 1 0 2 1 1 1 2 0 1 1 3 1 1 1 0 4 5 1 1 4 2 2 2 2 5 4 7 4 5 1 4 3 1 4 5 4 5 9 0 4 4 3 11 11 8 8 12 13 11 9 9 9 9 6 6 6 5 4 2
8 10 11 12 14 8 1 2 1 1 1 1 1 1 0 0 3 1 2 2 2 1 0 2 1 1 1 0 4 2 1 2 1 1 0 0 0 2 1 2 2 4 1 3 5 5 2 1 2 1 1 2 6 5 3 5 4 4 2 5 2 4 6 5 4 7 4 4 9 6 5 4 8 4 6 13 9 9 12 12 11 9 7 7 5 5 3 3
7 8 10 11 15 10 1 1 1 1 1 0 1 1 1 1 1 2 2 0 1 1 2 2 0 0 0 0 0 1 2 1 1 0 1 0 0 1 1 0 2 0 1 6 8 3 1 2 5 6 4 6 5 2 5 7 1 2 2 1 2 4 4 4 5 5 3 0 13 8 8 6 12 5 6 4 7 12 14 14 12 9 9 8 7 4 4 1
7 6 8 10 10 2 4 0 1 0 1 3 0 0 3 1 1 1 2 5 1 2 1 1 2 1 1 2 2 1 3 2 2 1 0 1 2 1 1 0 1 0 2 2 4 6 3 2 4 4 5 4 4 1 3 2 2 1 0 3 4 3 5 1 3 1 2 5 17 5 10 8 9 5 10 12 13 17 10 7 7 7 7 7 6 6 4 4
6 4 5 6 1 1 1 2 1 2 1 0 1 1 1 1 2 3 3 6 2 1 1 1 2 1 3 2 2 0 1 1 0 1 0 0 1 2 1 1 3 2 2 3 5 5 1 1 0 2 2 3 3 1 3 1 1 1 1 1 6 8 4 1 2 2 2 9 6 5 11 10 8 5 7 9 1 8 16 19 16 12 10 8 6 5 5 4
5 1 2 1 1 1 2 2 1 2 2 2 1 1 2 2 2 5 5 1 1 2 3 2 1 2 3 0 2 2 3 1 1 3 4 2 2 2 2 5 1 5 3 1 4 3 2 6 2 2 2 8 2 1 3 2 1 3 2 2 3 6 5 4 2 3 7 10 2 0 3 2 15 13 5 11 7 7 14 16 17 14 10 8 6 6 5 4
4 2 2 3 1 1 1 2 4 3 3 1 1 1 2 3 5 5 5 1 3 3 3 3 2 3 3 2 3 3 0 3 2 1 4 0 1 3 4 4 4 4 7 1 2 4 7 3 2 3 2 4 7 4 2 1 2 4 3 3 1 3 2 8 4 3 5 4 2 4 5 7 4 7 8 10 7 8 10 11 10 11 10 8 7 5 4 4
5 3 1 2 3 1 2 4 4 4 3 0 3 2 2 3 6 7 6 5 3 1 2 1 1 3 1 6 3 4 2 4 3 2 2 1 1 2 3 4 4 1 2 2 2 2 4 5 4 4 3 2 5 6 7 3 6 8 3 7 7 5 2 8 1 6 10 7 3 3 2 8 1 3 3 5 6 8 9 9 8 8 8 8 6 6 6 5
4 1 2 2 2 3 5 4 5 4 1 2 2 5 7 8 2 4 5 4 2 0 1 1 3 1 3 0 2 2 3 3 1 2 1 4 5 4 4 4 3 5 2 1 4 1 8 8 3 1 0 2 7 1 3 3 1 3 2 4 2 7 4 9 3 3 5 9 8 4 7 3 2 3 3 5 7 7 7 8 8 7 7 6 6 6 6 5
3 3 3 2 2 2 6 5 4 3 3 3 4 5 12 8 5 3 4 4 1 2 1 2 2 1 4 2 3 4 6 3 2 1 2 5 4 4 4 3 5 11 7 7 4 2 1 5 1 2 5 1 2 0 1 3 2 1 4 5 6 1 4 4 4 0 1 2 16 3 8 4 1 1 1 4 7 6 6 7 7 7 7 6 6 6 5 3
3 1 3 3 2 4 6 5 5 4 2 5 5 11 7 4 7 3 4 3 3 7 3 2 4 7 3 4 3 2 3 2 3 2 5 1 5 7 3 4 4 4 9 8 5 4 4 9 1 3 5 1 1 0 1 2 1 6 3 6 1 2 2 2 5 3 1 5 10 5 9 9 6 8 5 3 7 8 6 8 7 7 7 7 6 6 2 1
2 3 3 3 3 8 6 6 6 2 2 5 11 12 3 7 5 8 1 3 1 0 2 5 5 8 4 4 3 5 1 5 3 3 4 4 4 3 5 2 1 6 7 1 6 4 4 8 3 1 1 3 1 1 4 1 1 3 3 2 1 3 4 1 5 5 4 7 8 5 5 14 10 7 6 10 12 13 10 8 8 7 7 7 5 4 1 0
2 1 4 5 8 10 6 6 2 4 3 6 8 10 5 8 4 7 7 5 1 3 4 6 5 4 6 4 3 1 5 5 3 5 0 3 3 4 7 6 2 1 1 8 2 1 1 4 4 0 2 1 2 4 5 4 0 2 1 2 1 2 4 3 6 3 1 13 6 10 1 13 7 7 17 17 17 14 10 9 9 9 8 7 5 4 2 3
4 2 6 1 4 8 8 6 3 3 4 14 10 10 2 7 10 8 5 7 4 6 6 4 6 5 3 8 6 6 4 5 6 6 5 3 5 2 5 3 6 2 3 1 3 1 3 4 9 0 3 1 2 5 9 9 5 1 2 3 1 3 2 2 1 5 6 6 6 11 14 4 3 3 14 17 17 14 12 11 8 8 7 6 6 5 4 5
1 2 2 1 6 8 8 4 6 10 10 5 3 6 6 5 2 9 15 12 4 4 6 5 6 8 5 2 8 4 2 6 6 6 6 4 7 5 5 7 6 5 1 4 2 2 2 2 10 2 1 6 8 3 6 6 8 7 9 9 10 5 5 5 12 5 5 8 7 4 19 8 3 2 7 10 9 11 10 11 9 9 8 7 6 5 6 3
7 8 4 9 8 10 10 8 7 3 3 10 12 7 5 6 7 5 3 9 13 8 2 4 5 7 5 6 6 4 4 3 7 5 5 11 5 9 2 7 8 12 10 7 7 4 5 2 1 9 9 11 7 3 1 2 1 3 6 6 8 7 4 6 12 6 0 8 1 11 13 18 7 5 7 9 9 10 9 7 8 7 7 7 7 5 5 4
11 9 4 6 9 10 9 10 5 7 10 7 3 9 6 4 5 6 10 3 4 8 4 6 7 5 7 6 3 4 6 6 6 8 4 5 7 8 3 3 9 6 6 0 2 2 3 1 1 9 4 3 1 0 2 1 1 3 5 2 3 11 14 14 12 3 5 1 3 9 12 10 3 1 7 8 7 6 5 8 10 7 6 7 6 5 4 1
6 5 3 2 6 4 9 14 12 13 12 4 8 9 7 7 7 5 7 7 8 4 9 4 1 12 8 5 5 7 6 4 7 11 7 5 5 3 5 6 10 8 8 8 8 6 3 4 6 4 5 6 2 4 3 2 1 4 5 7 11 8 6 4 3 2 8 15 14 10 16 16 3 0 1 5 6 7 7 5 11 9 5 6 5 4 4 3
2 2 4 6 7 6 13 7 9 10 13 12 9 13 9 7 10 13 8 8 6 5 4 7 10 4 6 4 6 6 6 15 6 4 5 5 4 1 6 3 4 5 1 1 1 5 5 4 7 6 9 13 16 11 8 4 9 5 3 5 7 11 12 2 7 11 12 14 13 14 16 15 1 1 4 5 9 6 5 8 4 7 7 6 5 5 5 5
9 7 4 5 7 7 7 2 2 4 6 9 11 15 15 14 4 9 14 11 8 4 9 2 2 7 6 4 6 7 9 8 11 2 4 3 2 2 1 5 2 3 3 3 2 3 3 1 7 12 11 16 17 11 3 6 3 5 5 10 12 10 12 13 11 7 16 10 12 21 16 19 14 6 6 7 6 9 8 6 8 6 6 6 6 6 5 1
2 8 7 7 4 9 10 8 7 4 7 10 9 4 14 17 11 5 12 7 9 10 5 10 5 6 5 6 8 9 13 10 8 10 6 4 1 2 4 2 2 2 3 2 2 5 2 3 12 12 19 22 19 14 3 5 10 13 14 13 9 14 12 16 16 21 11 3 20 23 13 16 23 11 12 10 9 7 8 9 8 7 8 9 7 4 2 2
10 9 7 9 9 10 14 11 17 13 14 7 12 5 7 13 12 12 4 11 4 10 11 3 10 15 10 12 7 8 12 8 7 10 8 6 2 2 0 0 2 1 2 1 1 4 6 10 12 10 20 20 16 12 6 7 8 13 17 12 13 13 17 21 22 25 14 14 24 25 10 15 18 8 14 11 12 11 11 12 11 10 7 5 4 3 1 1
8 2 5 10 10 7 20 19 21 21 22 17 10 13 19 14 13 13 7 4 9 8 15 13 16 16 12 11 13 15 14 3 7 10 8 7 11 4 2 1 4 2 1 1 2 2 2 9 8 6 15 12 13 9 5 9 12 15 22 15 15 17 23 21 22 22 19 23 27 23 25 28 23 11 13 8 8 7 5 6 5 6 5 5 4 2 0 1
15 12 6 11 11 8 9 9 13 18 19 21 15 22 15 11 17 10 5 9 8 14 11 18 18 9 16 20 21 20 18 14 11 13 8 10 5 3 5 8 3 1 2 5 4 4 6 6 7 3 7 16 16 4 6 9 12 21 26 13 17 23 20 20 20 20 19 23 25 28 28 29 23 14 12 10 4 4 6 7 8 6 6 5 4 2 0 1
8 13 6 7 12 11 7 11 13 17 17 16 19 20 8 17 22 14 12 13 21 10 10 23 22 17 18 22 23 24 18 13 16 20 11 14 15 11 9 5 13 7 7 4 3 3 6 5 5 2 5 14 2 8 8 9 12 20 27 17 21 20 20 22 19 22 17 22 25 22 19 22 23 4 6 5 6 9 10 9 7 5 5 5 3 1 0 0
7 2 11 6 10 10 13 10 12 10 18 20 19 19 15 23 20 12 12 13 15 12 13 22 23 17 13 16 20 23 21 18 18 11 5 4 1 3 12 3 16 14 10 11 4 7 8 5 5 4 5 13 2 3 5 3 6 17 27 24 22 24 25 19 18 18 19 21 17 19 23 24 11 2 6 5 8 8 8 8 6 5 6 5 3 2 2 1
Wind_Direction
355 353 352 352 347 345 345 343 342 340 339 342 344 342 342 338 336 336 346 344 340 345 345 334 340 342 353 2 5 0 355 80 59 46 58 210 283 298 299 304 309 317 329 323 349 17 353 358 338 324 11 33 266 59 265 39 83 63 49 103 349 214 52 244 100 102 144 107 280 61 106 107 112 338 301 78 74 94 83 79 77 66 65 79 79 63 58 48
355 353 352 350 347 346 345 342 341 337 338 339 341 342 343 338 338 340 348 349 347 344 354 340 343 355 5 9 8 360 58 72 76 71 95 240 296 295 295 300 307 330 334 16 8 357 7 345 335 351 9 288 327 143 11 281 76 85 54 84 226 204 236 122 165 60 90 106 163 146 79 108 199 128 337 79 56 105 85 72 80 71 55 53 49 47 48 50
354 353 352 348 347 346 345 343 338 337 338 337 337 340 341 343 341 343 346 351 349 347 353 342 346 359 10 17 358 347 24 26 37 14 301 253 305 315 311 303 306 340 42 309 299 331 291 282 298 1 320 321 316 205 25 293 63 264 104 317 248 224 271 101 87 101 120 152 54 13 57 91 295 75 6 104 96 65 78 121 72 83 84 62 51 45 46 48
353 353 352 348 347 346 345 341 337 335 338 337 334 341 340 345 341 341 346 351 351 351 353 348 348 5 16 16 355 336 67 67 40 274 300 317 318 321 309 308 313 340 336 214 248 290 285 301 306 287 300 28 288 76 97 277 70 301 70 192 244 254 22 322 63 115 102 91 93 12 25 57 355 11 103 147 70 44 70 67 121 118 105 88 65 56 46 50
352 351 350 349 347 346 342 340 336 339 337 336 334 336 342 345 342 339 345 350 353 350 0 357 355 2 19 40 60 11 73 51 273 281 307 337 330 322 318 317 311 323 244 254 291 264 261 230 295 283 114 289 344 25 308 351 130 84 208 221 224 347 8 281 78 76 90 73 71 59 67 185 131 36 31 100 111 123 119 105 100 106 107 100 91 79 69 61
352 349 350 348 347 345 343 339 338 338 336 336 336 333 338 345 343 337 343 348 350 350 2 5 353 336 50 88 68 46 62 140 271 327 335 338 331 330 324 321 316 317 295 343 23 352 29 351 29 35 355 34 314 138 263 134 85 331 309 275 286 169 201 292 48 17 82 50 46 63 203 51 81 74 50 79 104 129 114 111 106 102 102 107 101 82 61 54
352 348 348 347 345 344 343 341 340 337 336 332 334 333 326 342 341 338 336 347 348 346 358 11 337 328 161 123 51 72 105 217 38 282 5 337 332 336 329 332 341 18 44 32 17 34 2 26 49 0 350 14 311 83 252 138 34 125 241 287 286 340 308 319 70 72 92 98 43 214 356 112 122 90 56 94 110 117 107 103 100 101 99 91 81 72 76 65
352 349 348 347 344 343 339 340 339 336 332 331 331 333 333 340 340 336 328 342 341 343 352 10 337 310 174 51 63 16 43 263 270 296 356 343 339 348 340 12 12 30 39 51 31 18 13 38 26 331 74 75 281 20 297 14 132 151 264 259 260 335 272 302 34 44 94 123 109 44 26 186 138 135 110 111 127 118 114 101 96 95 91 84 87 87 78 66
352 349 347 346 344 339 336 338 337 333 334 332 327 327 329 335 338 333 321 333 341 333 353 358 331 300 278 94 101 80 304 234 209 296 11 347 336 8 21 16 352 56 25 34 40 42 86 330 28 57 276 15 337 357 342 47 316 195 208 255 306 277 306 270 12 172 146 113 56 45 43 98 119 104 57 147 140 133 118 103 102 94 89 93 100 95 86 74
351 350 345 345 344 339 338 338 332 332 331 328 325 323 329 333 336 329 318 325 332 332 346 349 333 297 9 85 53 64 261 228 304 345 13 352 354 23 35 12 29 48 45 356 38 33 60 304 127 261 195 249 284 264 154 112 230 189 301 250 287 278 323 310 200 295 186 132 79 80 114 140 179 105 191 195 167 138 110 109 102 102 105 107 101 97 100 97
350 348 345 344 342 341 340 335 333 330 327 325 323 321 327 331 331 327 314 319 321 313 20 286 320 237 62 97 98 230 162 89 235 11 349 30 40 42 1 339 27 72 90 55 63 66 137 93 238 264 89 232 6 291 214 225 288 23 357 348 322 290 272 287 275 275 155 284 119 120 202 169 209 67 178 164 174 142 121 117 115 114 121 115 107 105 122 104
349 346 343 342 341 341 338 337 332 327 325 323 319 316 326 328 327 320 311 311 308 283 160 241 290 128 90 72 107 186 168 198 164 99 1 354 356 186 233 179 83 129 104 89 49 48 108 118 70 35 204 26 289 304 301 310 31 302 47 328 306 335 334 253 213 244 165 265 50 215 105 158 213 204 156 155 147 135 125 127 130 131 130 130 128 124 94 89
346 344 343 341 340 339 337 335 333 327 325 321 313 315 323 328 324 316 307 314 275 223 156 212 263 114 97 44 241 219 204 173 143 50 348 352 258 313 228 174 120 130 130 126 144 204 114 91 89 71 255 65 256 179 220 120 268 60 60 161 352 11 328 266 249 122 145 255 57 53 311 279 231 151 152 155 144 133 125 135 134 135 141 146 140 120 96 73
344 341 339 340 340 336 336 335 331 328 326 321 318 312 314 322 319 309 304 290 284 290 170 195 154 94 85 224 252 236 197 52 71 44 323 324 96 296 341 319 352 109 113 110 150 158 86 87 105 188 8 143 244 308 349 325 31 171 251 91 162 81 269 261 187 176 170 189 122 94 246 269 162 159 161 164 152 143 142 146 148 145 139 131 131 119 118 104
344 341 340 338 337 336 335 333 330 329 325 322 319 308 316 319 316 303 296 295 270 8 81 100 238 90 55 262 179 342 69 90 79 257 252 43 34 2 307 338 352 181 171 136 145 161 117 70 75 39 267 248 20 358 318 354 354 316 41 294 322 173 275 296 238 161 193 281 133 87 257 252 182 179 177 165 151 143 147 158 156 150 144 143 132 120 111 101
344 341 341 340 337 337 334 332 329 325 326 324 319 313 314 314 309 296 285 262 287 320 271 106 30 113 107 54 192 111 70 119 281 220 230 104 108 323 267 277 248 15 114 1 111 86 72 102 198 203 308 7 53 84 353 19 338 347 142 267 300 323 261 356 235 212 177 143 291 169 228 87 233 212 189 181 152 151 146 154 152 146 140 135 126 121 108 93
342 339 339 338 335 335 334 330 328 324 319 322 321 312 318 313 315 311 302 317 317 289 109 142 203 93 277 252 73 128 214 246 144 17 335 221 135 200 338 356 58 40 38 60 74 78 6 69 268 38 34 142 183 96 39 15 331 319 21 227 238 306 321 308 311 294 224 168 231 226 232 237 200 176 189 184 160 150 148 157 154 151 148 144 139 128 137 143
340 337 337 337 336 335 332 330 326 325 325 323 320 307 302 309 346 351 354 328 274 156 160 98 113 64 320 335 175 238 184 233 359 268 241 257 136 170 183 22 358 22 34 33 359 57 271 6 60 219 15 358 42 41 79 283 256 249 302 319 310 331 260 236 296 268 150 257 213 265 258 268 203 177 188 178 164 152 160 161 158 155 150 151 143 148 152 162
338 336 335 336 335 334 331 330 328 325 327 321 312 318 300 14 4 77 56 336 39 355 33 287 31 121 236 232 278 6 226 201 148 75 302 113 288 150 7 81 74 48 9 57 284 71 9 10 26 33 354 352 48 118 185 236 177 228 225 223 232 280 288 277 243 259 176 203 236 239 235 264 163 194 197 177 173 156 165 156 156 155 153 151 153 158 151 178
335 333 334 332 335 332 332 331 328 326 331 340 349 351 14 13 0 314 354 20 83 206 233 243 201 301 338 64 160 252 121 39 85 252 303 290 235 344 140 120 27 45 79 345 310 304 135 76 249 260 228 205 226 194 208 206 182 230 268 253 260 256 276 274 273 257 148 300 234 234 243 247 205 202 201 185 149 154 162 167 166 164 155 156 156 156 177 160
328 331 329 331 330 331 332 331 329 326 332 328 340 43 42 316 29 315 317 269 259 284 296 268 192 205 235 156 272 31 142 345 116 283 240 159 112 109 189 90 30 14 282 262 249 310 67 3 273 212 201 185 214 224 187 313 2 212 246 267 277 251 267 257 263 197 243 156 289 268 266 262 255 211 202 167 161 181 174 173 170 162 163 162 161 169 148 179
325 325 327 330 327 331 330 331 326 325 327 356 53 75 108 118 108 209 102 317 319 270 13 264 214 322 304 185 257 146 83 69 294 281 300 27 263 143 297 94 94 344 293 345 24 16 20 229 245 209 204 199 229 201 181 180 223 267 227 260 308 272 246 275 249 164 210 343 254 257 255 253 249 252 181 179 188 183 183 171 168 157 162 165 165 170 179 103
323 320 326 325 326 327 330 324 325 327 12 28 51 65 103 274 356 313 95 254 276 288 205 336 267 256 278 327 282 168 81 175 223 291 284 22 6 104 163 59 350 252 350 45 119 6 328 285 245 201 151 168 297 184 182 198 238 232 282 295 250 242 337 305 284 310 296 105 267 270 276 265 252 264 190 194 178 164 169 158 162 159 161 168 179 172 157 160
317 316 318 322 322 326 322 324 312 19 38 103 81 121 210 14 22 16 94 242 297 314 212 222 177 204 198 194 208 116 129 273 108 270 324 66 145 203 82 133 322 60 232 161 152 184 235 235 196 138 161 168 230 323 133 167 252 256 219 229 251 264 233 201 253 334 313 298 288 292 279 267 214 180 199 179 127 133 157 138 153 170 168 176 157 143 157 165
312 315 318 320 324 320 321 320 40 345 139 64 83 177 52 47 68 21 94 322 343 280 140 317 154 247 186 51 345 130 263 340 183 201 252 121 230 60 219 173 97 261 201 208 152 278 275 258 122 136 141 120 135 279 240 164 245 297 234 208 233 204 241 279 314 6 356 313 259 100 320 270 238 191 184 162 146 165 183 157 171 175 183 158 147 172 186 173
314 311 319 322 324 329 312 5 335 235 75 146 181 232 53 60 45 72 98 73 301 264 19 214 83 237 97 190 35 190 70 284 178 214 111 214 166 195 43 296 165 267 210 46 265 214 231 358 114 170 155 144 168 206 242 151 223 273 267 176 169 175 220 258 300 29 295 250 293 126 234 288 89 182 184 183 177 185 186 178 185 184 188 170 173 163 165 174
305 306 316 325 328 337 342 207 172 99 326 327 235 114 51 46 355 88 28 338 305 233 158 271 77 240 69 278 127 113 71 273 332 1 49 320 60 239 171 255 14 13 119 186 36 297 122 359 60 54 109 174 266 274 249 158 134 243 243 141 143 174 246 253 245 208 249 35 297 274 165 267 284 242 204 176 177 190 191 195 191 192 182 174 167 173 156 174
294 301 317 327 323 346 212 328 3 182 189 162 170 90 39 38 83 39 86 350 268 120 98 244 224 318 67 218 62 169 208 143 57 230 109 263 109 347 98 219 171 220 249 80 251 258 164 204 154 162 122 181 232 210 192 142 158 226 220 154 215 223 242 250 230 251 250 3 281 222 197 258 254 274 167 154 180 211 207 194 195 188 183 166 170 165 164 182
283 300 322 328 323 318 173 212 300 235 182 195 25 63 97 82 97 116 119 284 248 88 317 51 336 344 32 16 314 210 312 187 174 235 322 349 24 182 25 257 143 164 258 159 223 276 303 178 208 162 150 237 224 240 168 147 217 284 193 183 251 257 255 229 250 251 313 186 270 237 176 212 271 184 98 190 214 214 205 191 188 184 175 170 164 177 169 176
271 295 327 338 333 40 341 314 73 154 115 88 5 58 53 81 71 42 17 250 42 253 124 231 126 236 110 127 272 161 184 260 143 58 13 139 331 12 45 119 121 168 293 336 240 242 229 347 157 136 198 210 174 209 168 166 201 143 81 325 333 315 263 223 189 188 33 248 247 210 194 183 281 219 172 161 211 207 170 168 182 183 169 166 165 170 157 159
250 283 331 351 48 277 336 294 250 207 150 54 69 83 111 40 134 112 212 227 8 221 39 65 216 55 119 159 255 253 172 199 258 121 356 35 301 31 31 12 41 47 13 338 287 315 329 331 154 258 67 107 102 123 351 88 48 90 15 52 344 301 13 67 345 66 144 266 259 212 194 198 211 279 207 215 354 165 169 176 177 172 168 170 168 165 159 171
209 241 320 4 214 93 176 252 205 167 133 88 99 86 99 260 358 159 216 320 294 243 148 232 289 146 185 325 137 213 190 304 195 155 182 183 156 135 195 204 108 345 322 243 278 354 296 226 244 354 250 131 115 56 311 25 9 81 54 37 7 290 7 330 37 291 200 233 258 198 168 306 232 235 209 217 227 187 173 172 169 162 162 166 166 160 176 160
177 171 306 246 270 249 225 152 138 136 90 50 92 73 87 128 231 231 261 308 253 138 255 103 199 163 162 82 259 248 301 194 260 201 134 291 155 277 251 182 186 157 264 285 311 351 277 288 323 246 16 213 124 153 257 349 193 111 147 148 118 319 343 280 243 250 290 296 253 104 54 257 272 296 213 191 197 170 144 143 147 148 155 162 160 166 162 176
185 134 338 196 202 204 191 140 148 125 102 83 91 60 74 152 238 236 212 224 213 347 80 125 58 56 89 180 239 166 286 257 160 230 143 223 70 242 308 263 159 270 176 322 303 213 323 341 272 159 246 172 180 185 179 173 162 204 146 145 187 163 188 281 257 259 266 250 271 249 31 231 113 251 319 156 135 125 127 130 138 144 155 156 156 164 160 195
148 207 247 275 235 218 162 149 146 141 109 104 94 131 174 226 234 203 237 265 275 14 113 306 116 90 283 10 281 249 189 307 126 105 222 136 239 170 196 229 235 128 126 66 258 83 217 224 263 292 212 141 175 233 142 96 49 212 163 86 104 230 137 238 193 235 306 320 300 171 214 208 212 328 49 112 114 111 131 134 136 151 150 146 148 164 186 208
89 251 157 247 222 213 153 149 144 113 140 113 141 202 212 181 211 172 244 173 135 154 195 34 87 128 248 301 316 214 340 168 295 93 302 193 204 193 217 196 173 183 152 172 198 251 15 277 246 338 24 130 199 256 205 131 209 166 112 207 210 171 153 290 319 132 17 20 261 165 281 268 356 154 103 135 125 144 147 151 148 159 162 150 171 182 202 206
227 140 219 198 239 158 147 137 138 123 102 149 170 227 203 255 186 184 260 174 210 134 108 168 256 171 211 228 216 211 231 64 271 113 271 204 302 202 215 244 152 176 199 156 283 187 212 267 161 114 224 283 225 154 269 350 145 104 209 239 262 145 116 153 239 335 285 233 270 134 241 268 120 278 184 175 168 181 179 172 169 169 165 163 183 186 188 141
184 235 269 239 185 149 134 136 123 72 122 166 219 228 169 221 216 227 127 98 8 337 130 158 269 158 255 179 257 187 244 168 257 130 246 194 250 168 139 170 229 178 201 204 166 282 105 300 220 289 158 277 328 60 339 313 38 188 186 275 111 274 305 231 85 267 265 254 274 260 225 250 185 215 164 207 191 194 194 182 170 174 173 174 184 181 199 17
200 237 253 196 146 145 139 132 116 133 149 205 223 231 213 234 203 221 203 162 152 128 200 228 204 229 175 197 205 175 157 186 200 189 148 251 190 202 190 163 192 344 109 138 181 239 66 240 299 245 130 255 11 87 234 219 338 67 22 345 248 106 228 174 198 204 182 270 306 273 71 268 158 213 183 196 200 187 181 176 190 183 179 172 178 171 165 224
181 189 234 83 140 125 133 131 122 181 184 216 201 223 164 218 225 230 236 179 232 171 227 192 214 242 208 222 164 197 236 172 159 230 170 250 192 245 187 216 155 190 63 107 157 127 224 122 262 54 294 82 206 182 214 165 181 153 145 238 321 225 227 140 269 158 205 256 244 291 295 272 207 171 175 195 189 187 173 181 187 182 176 171 168 168 198 199
95 295 271 166 134 138 122 123 189 200 212 244 232 225 234 232 167 215 229 217 233 223 188 188 172 198 197 214 264 186 214 188 186 188 190 268 185 276 223 177 155 147 112 35 123 208 140 167 229 97 298 207 232 236 200 193 190 184 175 210 197 189 255 258 263 101 216 224 241 230 262 256 253 168 177 180 176 169 183 173 176 173 166 166 177 184 183 192
162 222 203 152 154 156 149 187 218 180 217 212 210 192 225 212 257 239 223 226 219 236 198 208 204 197 196 215 186 185 184 200 210 200 234 219 216 202 269 162 168 151 142 187 191 234 161 150 154 246 213 235 222 226 186 165 146 213 168 228 180 216 173 209 258 232 296 240 203 251 277 275 161 160 156 160 163 175 180 162 158 161 167 177 184 180 190 178
195 213 24 166 168 171 169 229 207 208 225 228 263 278 260 278 243 211 221 191 217 213 226 217 197 201 237 205 188 212 181 241 174 204 211 205 227 204 263 192 132 125 91 339 59 250 106 180 255 268 304 304 282 2 51 66 92 303 254 175 158 211 204 215 226 209 232 222 159 243 241 262 19 129 166 159 161 169 163 154 157 167 174 180 176 182 185 182
189 186 158 231 181 187 182 206 196 209 226 238 218 240 217 237 228 232 213 193 204 172 211 213 268 207 236 178 192 229 169 262 233 222 250 194 238 103 328 165 167 171 155 216 154 211 111 245 159 293 327 282 209 26 334 8 86 232 223 205 216 234 241 269 317 83 261 240 232 244 255 263 116 120 120 141 148 167 158 173 155 164 181 175 177 185 186 194
131 161 157 172 177 204 206 203 207 206 215 214 215 234 229 238 222 223 205 218 207 183 181 229 211 145 218 161 202 206 195 204 274 235 187 201 218 11 328 63 285 192 145 279 130 170 189 182 139 222 260 289 291 288 275 202 213 221 212 220 219 208 220 160 243 232 244 251 230 238 249 254 99 291 189 190 178 155 159 164 177 162 168 180 181 186 189 204
189 217 159 158 179 210 271 341 335 226 198 203 226 234 224 236 238 212 208 231 196 210 211 196 223 183 211 160 214 218 235 228 206 242 144 226 236 336 228 319 66 187 172 105 124 139 188 258 205 209 217 242 251 253 92 116 90 216 233 203 220 214 215 221 238 236 234 256 257 243 235 266 247 218 242 226 198 182 169 177 173 180 186 183 177 183 186 176
131 224 164 176 130 224 235 207 224 180 215 178 217 178 218 224 223 250 183 229 197 204 231 215 187 179 214 187 212 235 230 231 228 242 220 188 270 219 318 120 53 75 159 128 134 83 73 232 230 215 227 240 245 255 176 146 247 261 258 242 214 214 209 217 218 233 220 40 259 253 224 245 256 230 222 217 221 209 177 180 189 184 184 179 179 164 101 28
214 215 184 184 171 191 200 212 210 221 235 205 238 239 227 211 201 221 178 219 182 195 213 236 217 214 185 191 195 233 236 220 184 228 232 229 86 246 51 320 189 282 130 193 325 176 170 229 236 190 239 245 254 268 268 261 245 257 254 249 235 218 221 222 228 237 226 226 245 260 247 240 249 221 235 209 214 221 179 191 187 183 167 146 119 87 62 336
210 31 205 163 226 187 202 196 192 206 222 216 240 227 239 224 214 205 187 189 210 219 201 228 222 211 204 202 202 233 225 152 234 230 212 206 209 149 211 330 245 185 153 146 211 186 80 248 250 192 250 252 254 246 244 246 259 260 254 235 235 232 231 228 237 239 228 241 249 264 266 263 257 233 238 222 202 192 185 163 147 137 155 151 132 133 146 250
201 186 208 188 213 204 191 186 193 200 220 212 221 227 224 221 231 208 203 184 214 222 197 225 231 194 204 216 216 225 220 206 194 223 206 198 235 157 219 195 127 35 152 193 151 275 161 263 118 168 250 259 261 225 224 235 244 260 259 233 233 242 245 239 241 246 241 249 254 253 258 265 263 245 250 248 182 145 131 156 174 171 150 148 142 158 204 273
200 202 146 160 202 210 182 176 188 198 212 214 221 232 221 216 232 200 218 208 212 202 181 217 222 218 214 221 224 228 228 211 213 226 200 171 217 199 179 249 152 157 173 165 159 259 196 253 77 129 234 269 267 194 226 241 258 261 267 247 234 238 245 240 231 232 223 237 245 254 258 258 261 246 220 205 168 162 170 177 170 161 161 143 145 167 187 296
222 157 204 161 211 183 204 185 198 177 225 217 209 211 214 218 222 180 233 235 235 215 198 209 216 218 224 227 229 227 222 218 224 230 235 218 18 139 215 173 168 165 170 189 162 168 194 154 179 182 199 248 73 111 84 59 306 279 256 237 226 229 232 243 249 242 229 231 244 246 243 245 271 157 182 192 174 180 170 179 161 162 173 152 157 178 172 159